Regional Weather Roundup
Issued by NWS

Home | Current Version | Previous Version | Graphics & Text | Print | Product List | Glossary On
Versions: 1 2 3 4 5 6 7 8 9 10 11 12 13 14 15 16 17 18 19 20 21 22 23 24 25 26 27 28 29 30 31 32 33 34 35 36 37 38 39 40 41 42 43 44 45 46 47 48 49 50
000
ASUS43 KTOP 212208
RWRKS

WEATHER ROUNDUP FOR KANSAS
NATIONAL WEATHER SERVICE GOODLAND KS
500 PM CDT SUN SEP 21 2014

NOTE:  "FAIR" INDICATES FEW OR NO CLOUDS BELOW 12,000 FEET WITH NO
SIGNIFICANT WEATHER AND/OR OBSTRUCTIONS TO VISIBILITY.

KSZ001>006-013>018-027>032-041>047-212300-
NORTHWEST KANSAS

CITY           SKY/WX    TMP DP  RH WIND       PRES   REMARKS
GOODLAND       PTSUNNY   74  38  27 VRB3      30.30F
HAYS           SUNNY     79  41  25 NE13      30.23F
HILL CITY      SUNNY     79  37  22 E6        30.25F
RUSSELL        SUNNY     78  38  23 N9        30.21F
$$

KSZ061>065-074>080-084>089-212300-
SOUTHWEST KANSAS

CITY           SKY/WX    TMP DP  RH WIND       PRES   REMARKS
DODGE CITY     SUNNY     83  39  21 E13G18    30.23F
ELKHART          N/A     82  45  27 E14         N/A
GARDEN CITY    SUNNY     79  42  26 E15       30.24F
GREAT BEND     SUNNY     79  43  27 NE13      30.22F
LIBERAL        SUNNY     82  45  26 E15       30.23F
PRATT          SUNNY     81  37  21 NE9       30.22S
$$

KSZ066>073-081>083-090>101-212300-
SOUTHEAST KANSAS

CITY           SKY/WX    TMP DP  RH WIND       PRES   REMARKS
CHANUTE        SUNNY     79  50  36 N14G22    30.14S
HUTCHINSON     MOSUNNY   80  41  24 N9        30.20F
MEDICINE LODGE   N/A     84  43  23 NE9G18    30.17S
NEWTON         MOSUNNY   77  43  29 N13       30.21F
PARSONS        SUNNY     81  50  33 N8        30.14F
WICHITA INTL   MOSUNNY   82  45  27 NE12G21   30.17F
WICHITA JABRA  MOSUNNY   80  42  25 N10       30.18S
WICHITA MCCONL MOSUNNY   81  41  24 N14       30.18S
WINFIELD       SUNNY     83  45  26 N10       30.16S
$$

KSZ007>012-019>026-033>040-048>060-102>105-212300-
NORTHEAST KANSAS

CITY           SKY/WX    TMP DP  RH WIND       PRES   REMARKS
CONCORDIA      SUNNY     76  42  29 N15       30.21S
EMPORIA        SUNNY     77  45  32 N13G22    30.16F
LAWRENCE       SUNNY     77  45  32 N13       30.16S
MANHATTAN      SUNNY     78  42  27 N12G20    30.18S
MARYSVILLE     SUNNY     73  45  35 N8G20     30.20S
OLATHE IND     SUNNY     74  49  41 N15       30.16S
OLATHE EXE     SUNNY     76  46  34 N16       30.14F
SALINA         SUNNY     78  43  28 N14       30.20F
TOPEKA BILLARD SUNNY     77  47  34 NW13      30.17S
TOPEKA FORBES  SUNNY     76  46  34 N14       30.17S
$$



USA.gov is the U.S. government's official web portal to all federal, state and local government web resources and services.